Content
SEND FEEDBACK

Canada Flag

QUEBEC CITY, QUEBEC


Home > North America > Canada > Quebec
Elevation: 239 feet     Latitude: 46 48N     Longitude: 071 23W

WEATHER
 
SELECT A DAY
Number of Records: 215,370;   Date Range: 6/30/96 - 3/22/16
 
SHARE

PRINT THIS DATA

[ ← Previous Day ]
WEATHER ALMANAC - FEBRUARY 10, 2014
[ Next Day → ]
[ °C ]   °F
Weather ElementAverageHighLow
Temperature8.3 °F17.6 °F (2:00 pm)-7 °F (10:00 pm)
Dewpoint-1.5 °F4 °F (1:00 am)-12 °F (10:00 pm)
Humidity63.4 %85 % (4:00 am)31 % (4:00 pm)
Barometer30.05 in30.14 in (11:00 pm)29.99 in (3:00 am)
Wind Speed6 mph17.3 mph (2:00 pm)
Wind Gust18.4 mph (3:00 pm)
Weather ElementAverage
Visibility20.6 mi
Wind DirectionWSW (256.8 °)

Weather ElementTotal
Precipitation---
Heating Degree Days59.7 (Base 65)
Averaged from 31 records on February 10, 2014
WEATHER CONDITIONS BREAKOUT
WIND DIRECTION BREAKOUT
WEATHER BY HOUR - FEBRUARY 10, 2014
[ °C ]   °F
Local TimeTemperatureDewpointHumidityBarometerVisibilityWind DirectionWind SpeedGust SpeedPrecipitationEventsConditions
1:00 AM8.0 °F4.0 °F78 %30.00 inNorth (350°)1.2 mph
1:00 AM8.6 °F3.2 °F79 %30.00 in8.0 miNorth (10°)2.3 mphSnowLight Snow
2:00 AM8.6 °F3.2 °F79 %30.00 in6.0 miNW (320°)2.3 mphSnowLight Snow
3:00 AM8.6 °F3.2 °F79 %29.99 in8.0 miNNW (330°)5.8 mphOvercast
4:00 AM6.0 °F3.0 °F80 %29.99 inNNW (340°)1.2 mph
4:00 AM5.0 °F1.4 °F85 %29.99 in8.0 miNW (320°)4.6 mphSnowLight Snow
5:00 AM5.0 °F1.4 °F85 %29.99 in8.0 miNNW (330°)4.6 mphSnowLight Snow
6:00 AM5.0 °F-0.4 °F78 %30.00 in15.0 miNW (310°)5.8 mphPartly Cloudy
7:00 AM-1.0 °F-5.0 °F76 %30.02 inWNW (290°)4.6 mph
7:00 AM3.2 °F-2.2 °F78 %30.01 in30.0 miNW (320°)6.9 mphMostly Cloudy
8:00 AM3.2 °F-2.2 °F78 %30.04 in30.0 miNorth (10°)2.3 mphScattered Clouds
9:00 AM6.8 °F-0.4 °F72 %30.05 in30.0 miNNW (330°)4.6 mphScattered Clouds
10:00 AM13.0 °F2.0 °F47 %30.05 inWest (260°)1.2 mph
10:00 AM10.4 °F-2.2 °F57 %30.05 in30.0 miCalmScattered Clouds
11:00 AM14.0 °F-2.2 °F49 %30.05 in30.0 miSW (230°)4.6 mphPartly Cloudy
12:00 PM15.8 °F-0.4 °F49 %30.03 in30.0 miSW (230°)10.4 mphPartly Cloudy
1:00 PM16.0 °F0.0 °F33 %30.01 inWest (280°)9.2 mph
1:00 PM15.8 °F-0.4 °F49 %30.01 in30.0 miWest (260°)13.8 mphPartly Cloudy
2:00 PM17.6 °F-0.4 °F45 %30.01 in30.0 miWest (260°)17.3 mphPartly Cloudy
3:00 PM15.8 °F-0.4 °F49 %30.03 in30.0 miWest (260°)12.7 mph18.4 mphScattered Clouds
4:00 PM15.0 °F-2.0 °F31 %30.05 inWest (280°)11.5 mph
4:00 PM15.8 °F-2.2 °F45 %30.05 in30.0 miWest (270°)10.4 mphScattered Clouds
5:00 PM12.2 °F-4.0 °F48 %30.07 in30.0 miWest (270°)9.2 mphScattered Clouds
6:00 PM10.4 °F-5.8 °F48 %30.10 in15.0 miWNW (290°)5.8 mphPartly Cloudy
7:00 PM7.0 °F-7.0 °F37 %30.11 inWest (260°)6.9 mph
7:00 PM6.8 °F-4.0 °F61 %30.11 in15.0 miWest (260°)6.9 mphPartly Cloudy
8:00 PM5.0 °F-0.4 °F78 %30.11 in15.0 miWSW (250°)8.1 mphPartly Cloudy
9:00 PM1.4 °F-4.0 °F78 %30.12 in15.0 miWest (270°)2.3 mphPartly Cloudy
10:00 PM-7.0 °F-12.0 °F70 %30.13 inWest (270°)1.2 mph
10:00 PM3.2 °F-4.0 °F72 %30.13 in15.0 miWSW (240°)3.5 mphPartly Cloudy
11:00 PM1.4 °F-5.8 °F72 %30.14 in15.0 miWest (260°)3.5 mphFogPartly Cloudy
Hourly data recorded from CYQB, located miles away from Quebec City, Quebec




STORIES FROM OUR PARTNERS